STARLINK-1908

Last updated on Tue Nov 24 2020 00:02:02 GMT+0000 (Coordinated Universal Time)

1 46747U 20074J 20328.58334491 -.00028539 00000-0 -30691-3 0 9994 2 46747 53.0549 13.3932 0001327 57.4138 17.1043 15.62755584 1801

Satellite not in orbit

STARLINK-1908